Regional Weather Roundup
Issued by NWS

Home | Current Version | Previous Version | Text Only | Print | Product List | Glossary On
Versions: 1 2 3 4 5 6 7 8 9 10 11 12 13 14 15 16 17 18 19 20 21 22 23 24 25 26 27
000
ASUS45 KCYS 212010
RWRWY

WYOMING REGIONAL WEATHER ROUNDUP
NATIONAL WEATHER SERVICE CHEYENNE WY
200 PM MDT FRI JUL 21 2017

NOTE:  "FAIR" INDICATES FEW OR NO CLOUDS BELOW 12,000 FEET
WITH NO SIGNIFICANT WEATHER AND/OR OBSTRUCTIONS TO VISIBILITY.

WYZ001-212100-
YELLOWSTONE NATIONAL PARK

CITY           SKY/WX    TMP DP  RH WIND       PRES   REMARKS
LK YELLOWSTONE   N/A     72  27  18 VRB5      30.33F
W YELLOWSTONE  NOT AVBL

$$
WYZ002>013-054>058-071-098>099-212100-
NORTHERN WYOMING

CITY           SKY/WX    TMP DP  RH WIND       PRES   REMARKS
JACKSON        SUNNY     79  30  17 W7        30.24F
CODY           FAIR      84  36  18 E6        30.09F
GREYBULL       FAIR      89  35  14 VRB5      30.00F
WORLAND        FAIR      87  48  25 NW7       30.03F
SHERIDAN       FAIR      88  34  14 MISG      30.04F
BUFFALO        FAIR      84  36  18 N10       30.12F
GILLETTE       FAIR      88  33  14 N9G17     30.05F
HULETT         FAIR      86  36  16 N12G18    30.04S
NEWCASTLE      FAIR      86  41  20 NW15G25   30.02F

$$
WYZ014>020-022>026-101>103-212100-
CENTRAL WYOMING

CITY           SKY/WX    TMP DP  RH WIND       PRES   REMARKS
BIG PINEY      FAIR      77  46  33 VRB5      30.28F
PINEDALE       FAIR      77  36  22 NW6       30.29F
DUBOIS         FAIR      77  23  13 NW21G33   30.24F
LANDER         FAIR      83  50  31 VRB5      30.11F
RIVERTON       FAIR      84  37  18 VRB6      30.12F
CASPER         PTSUNNY   87  47  24 VRB6      30.10F
DOUGLAS        FAIR      89  43  20 NW13      30.09F

$$
WYZ021-027>030-104>119-212100-
SOUTHERN WYOMING

CITY           SKY/WX    TMP DP  RH WIND       PRES   REMARKS
EVANSTON       PTSUNNY   81  47  30 NE7       30.27F
KEMMERER         N/A     81  30  16 N6        30.30S
FORT BRIDGER   FAIR      82  40  22 NW5       30.29F
ROCK SPRINGS   FAIR      78  51  38 VRB3      30.24F
RAWLINS        FAIR      83  49  30 SW13      30.24F
SARATOGA       FAIR      82  46  28 N10G18    30.26F
LARAMIE        FAIR      80  43  26 VRB5      30.25F
CHEYENNE       FAIR      86  38  18 N8G18     30.16F
TORRINGTON     FAIR      92  46  20 N10       30.01S
PINE BLUFFS    FAIR      91  39  16 NE7G16    30.10S

$$




USA.gov is the U.S. government's official web portal to all federal, state and local government web resources and services.